Simultaneous Nadir Overpasses (SNOs) Predictions

Prediction of SNOs between METOP-C and LANDSAT-8 Satellite Orbit:

Table of predicted SNOs for the next 14.0 days since TLE Epoch: 1/8/2022
Index Date (METOP-C) Time (METOP-C) Lat,Lon (METOP-C) SZA (METOP-C ) Date (LANDSAT-8) Time (LANDSAT-8) Lat,Lon (LANDSAT-8) SZA (LANDSAT-8 ) Distance(km) Time Diff (sec)
1 01/10/2022 07:06:23 81.07, 112.19 104.68 01/10/2022 07:06:58 81.07, 112.30 104.70 1.94 35
2 01/10/2022 07:57:00 -81.12, -79.30 75.19 01/10/2022 07:56:23 -81.12, -79.40 75.21 1.66 37
3 01/13/2022 02:40:45 81.09, 178.96 104.25 01/13/2022 02:41:12 81.09, 179.03 104.27 1.38 27
4 01/13/2022 03:31:23 -81.12, -12.84 75.65 01/13/2022 03:30:38 -81.11, -13.01 75.69 2.91 45
5 01/15/2022 22:15:08 81.09,-114.67 103.73 01/15/2022 22:15:27 81.08,-114.64 103.73 0.44 19
6 01/15/2022 23:05:46 -81.11, 53.23 76.22 01/15/2022 23:04:52 -81.11, 53.34 76.23 1.90 54
7 01/18/2022 17:49:29 81.10, -47.94 103.19 01/18/2022 17:49:40 81.10, -47.99 103.19 1.01 11
8 01/18/2022 18:40:08 -81.12, 120.03 76.75 01/18/2022 18:39:06 -81.12, 120.00 76.77 0.54 62
9 01/21/2022 13:23:52 81.09, 18.40 102.56 01/21/2022 13:23:55 81.09, 18.25 102.54 2.77 3



Historial Predications of SNOs between METOP-C and LANDSAT-8
